Date String (YYYY-MM-DD hh:mm:ss) UTC,Instrument flags,absolute air pressure of the measurement (hPa),sample flow rate (lpm),inlet stack bypass flow (lpm),air temperature of the measurement (°C),ambient temperature measured by the external sensor (°C),aerosol sample conditioner tube jacket temperature (°C),OPC LED temperature (°C),internal box temperature (°C),relative humidity of the measurement (%),span deviation,mass concentration of particles derived from Lorenz-Mie calculation of OPC scattering (μg/m³),mass concentration of particles derived from Lorenz-Mie calculation of OPC scattering (μg/m³),mass concentration of particles derived from Lorenz-Mie calculation of OPC scattering (μg/m³)
DateTimeUTC,F1_M11,P_M11,Q1_M11,Q2_M11,T1_M11,T2_M11,T3_M11,T4_M11,T5_M11,U1_M11,ZSPAN_M11,X0_M11,X2_M11,X1_M11
2023-12-19 14:00:00,SystemResetWarning,0825.3,4.99,000.00,023.0,022.3,000.0,031.3,024.5,6.2,0000.0,0003.19,0001.29,0001.10
2023-12-19 14:01:00,SystemResetWarning,0825.4,4.99,000.00,023.0,022.3,000.0,031.3,024.5,6.2,0000.0,0004.73,0001.27,0001.09
2023-12-19 14:02:00,SystemResetWarning,0825.4,5.00,000.00,023.0,022.3,000.0,031.3,024.5,6.3,0000.0,0005.70,0001.29,0001.09
2023-12-19 14:03:00,SystemResetWarning,0825.4,5.00,000.00,023.0,022.3,000.0,031.3,024.5,6.3,0000.0,0005.67,0001.30,0001.08
2023-12-19 14:04:00,SystemResetWarning,0825.4,5.00,000.00,023.0,022.3,000.0,031.3,024.5,6.3,0000.0,0005.90,0001.33,0001.09
2023-12-19 14:05:00,SystemResetWarning,0825.4,5.00,000.00,023.1,022.3,000.0,031.3,024.5,6.2,0000.0,0006.44,0001.34,0001.09
2023-12-19 14:06:00,SystemResetWarning,0825.4,4.99,000.00,023.1,022.3,000.0,031.3,024.5,6.2,0000.0,0006.42,0001.33,0001.09
2023-12-19 14:07:00,SystemResetWarning,0825.4,4.99,000.00,023.1,022.3,000.0,031.3,024.5,6.2,0000.0,0006.42,0001.30,0001.07
2023-12-19 14:08:00,SystemResetWarning,0825.4,5.00,000.00,023.1,022.3,000.0,031.3,024.5,6.2,0000.0,0006.30,0001.30,0001.07
2023-12-19 14:09:00,SystemResetWarning,0825.3,5.01,000.00,023.1,022.3,000.0,031.3,024.5,6.2,0000.0,0005.16,0001.30,0001.06
2023-12-19 14:10:00,SystemResetWarning,0825.4,5.01,000.00,023.1,022.3,000.0,031.3,024.5,6.2,0000.0,0005.13,0001.29,0001.05
2023-12-19 14:11:00,SystemResetWarning,0825.4,5.00,000.00,023.1,022.3,000.0,031.3,024.5,6.2,0000.0,0005.14,0001.28,0001.06
2023-12-19 14:12:00,SystemResetWarning,0825.4,4.99,000.00,023.1,022.3,000.0,031.3,024.5,6.3,0000.0,0004.69,0001.29,0001.06
2023-12-19 14:13:00,SystemResetWarning,0825.4,5.00,000.00,023.1,022.3,000.0,031.3,024.5,6.4,0000.0,0002.67,0001.30,0001.07
2023-12-19 14:14:00,SystemResetWarning,0825.4,5.01,000.00,023.1,022.3,000.0,031.3,024.5,6.3,0000.0,0002.66,0001.30,0001.08
2023-12-19 14:15:00,SystemResetWarning,0825.4,5.01,000.00,023.1,022.3,000.0,031.3,024.5,6.3,0000.0,0002.58,0001.28,0001.07
2023-12-19 14:16:00,SystemResetWarning,0825.3,5.00,000.00,023.1,022.3,000.0,031.3,024.5,6.3,0000.0,0001.81,0001.27,0001.07
2023-12-19 14:17:00,SystemResetWarning,0825.3,4.99,000.00,023.1,022.3,000.0,031.3,024.6,6.9,0000.0,0001.84,0001.29,0001.08
2023-12-19 14:18:00,SystemResetWarning,0825.3,5.00,000.00,023.1,022.3,000.0,031.3,024.5,7.1,0000.0,0001.78,0001.27,0001.08
2023-12-19 14:19:00,SystemResetWarning,0825.2,5.00,000.00,023.1,022.3,000.0,031.4,024.5,7.3,0000.0,0001.74,0001.27,0001.08
2023-12-19 14:20:00,SystemResetWarning,0825.3,5.00,000.00,023.1,022.3,000.0,031.4,024.5,7.2,0000.0,0001.68,0001.27,0001.09
2023-12-19 14:21:00,SystemResetWarning,0825.3,5.00,000.00,023.1,022.3,000.0,031.4,024.5,7.2,0000.0,0001.71,0001.27,0001.08
2023-12-19 14:22:00,SystemResetWarning,0825.2,5.00,000.00,023.1,022.3,000.0,031.4,024.5,7.2,0000.0,0001.67,0001.25,0001.07
2023-12-19 14:23:00,SystemResetWarning,0825.3,5.00,000.00,023.1,022.3,000.0,031.4,024.6,7.3,0000.0,0001.61,0001.22,0001.06
2023-12-19 14:24:00,SystemResetWarning,0825.3,5.00,000.00,023.1,022.3,000.0,031.4,024.6,6.8,0000.0,0001.54,0001.19,0001.04
2023-12-19 14:25:00,SystemResetWarning,0825.3,5.00,000.00,023.1,022.3,000.0,031.4,024.6,6.3,0000.0,0001.47,0001.16,0001.03
2023-12-19 14:26:00,SystemResetWarning,0825.3,5.00,000.00,023.1,022.4,000.0,031.4,024.6,6.2,0000.0,0001.43,0001.14,0001.03
2023-12-19 14:27:00,SystemResetWarning,0825.4,5.00,000.00,023.2,022.4,000.0,031.4,024.6,6.1,0000.0,0001.62,0001.13,0001.02
2023-12-19 14:28:00,SystemResetWarning,0825.4,5.00,000.00,023.2,022.4,000.0,031.4,024.6,6.1,0000.0,0002.15,0001.13,0001.01
2023-12-19 14:29:00,SystemResetWarning,0825.4,5.00,000.00,023.2,022.4,000.0,031.4,024.6,6.0,0000.0,0002.15,0001.13,0001.02
2023-12-19 14:30:00,SystemResetWarning,0825.3,5.00,000.00,023.2,022.4,000.0,031.4,024.6,6.0,0000.0,0002.14,0001.13,0001.02
2023-12-19 14:31:00,SystemResetWarning,0825.4,5.00,000.00,023.2,022.5,000.0,031.4,024.6,6.0,0000.0,0002.07,0001.10,0001.01
2023-12-19 14:32:00,SystemResetWarning,0825.4,5.00,000.00,023.2,022.5,000.0,031.4,024.7,6.2,0000.0,0001.99,0001.07,0001.00
2023-12-19 14:33:00,SystemResetWarning,0825.4,5.00,000.00,023.2,022.5,000.0,031.4,024.6,6.4,0000.0,0002.06,0001.10,0001.01
2023-12-19 14:34:00,SystemResetWarning,0825.3,5.00,000.00,023.2,022.5,000.0,031.4,024.6,6.4,0000.0,0002.11,0001.12,0001.02
2023-12-19 14:35:00,SystemResetWarning,0825.4,4.99,000.00,023.2,022.5,000.0,031.5,024.6,6.5,0000.0,0002.09,0001.12,0001.03
2023-12-19 14:36:00,SystemResetWarning,0825.4,5.00,000.00,023.2,022.5,000.0,031.5,024.7,6.6,0000.0,0002.15,0001.14,0001.04
2023-12-19 14:37:00,SystemResetWarning,0825.4,5.00,000.00,023.2,022.5,000.0,031.5,024.7,6.7,0000.0,0002.26,0001.17,0001.05
2023-12-19 14:38:00,SystemResetWarning,0825.4,5.00,000.00,023.2,022.5,000.0,031.5,024.7,6.7,0000.0,0002.37,0001.18,0001.04
2023-12-19 14:39:00,SystemResetWarning,0825.4,5.00,000.00,023.2,022.5,000.0,031.5,024.7,6.4,0000.0,0004.20,0001.18,0001.04
2023-12-19 14:40:00,SystemResetWarning,0825.4,5.00,000.00,023.2,022.5,000.0,031.5,024.7,6.3,0000.0,0004.27,0001.19,0001.04
2023-12-19 14:41:00,SystemResetWarning,0825.4,5.00,000.00,023.2,022.5,000.0,031.5,024.7,6.4,0000.0,0004.30,0001.20,0001.04
2023-12-19 14:42:00,SystemResetWarning,0825.4,5.00,000.00,023.2,022.5,000.0,031.5,024.7,6.3,0000.0,0004.42,0001.24,0001.05
2023-12-19 14:43:00,SystemResetWarning,0825.4,5.00,000.00,023.2,022.5,000.0,031.5,024.7,6.2,0000.0,0004.46,0001.26,0001.05
2023-12-19 14:44:00,SystemResetWarning,0825.4,5.00,000.00,023.2,022.5,000.0,031.5,024.7,6.2,0000.0,0004.41,0001.25,0001.05
2023-12-19 14:45:00,SystemResetWarning,0825.4,5.01,000.00,023.2,022.5,000.0,031.5,024.7,6.2,0000.0,0004.42,0001.26,0001.06
2023-12-19 14:46:00,SystemResetWarning,0825.4,5.00,000.00,023.3,022.5,000.0,031.5,024.7,6.2,0000.0,0004.50,0001.28,0001.07
2023-12-19 14:47:00,SystemResetWarning,0825.4,5.00,000.00,023.3,022.5,000.0,031.5,024.7,6.2,0000.0,0004.52,0001.29,0001.07
2023-12-19 14:48:00,SystemResetWarning,0825.4,5.01,000.00,023.3,022.6,000.0,031.5,024.7,6.2,0000.0,0004.45,0001.28,0001.07
2023-12-19 14:49:00,SystemResetWarning,0825.5,5.00,000.00,023.3,022.6,000.0,031.5,024.7,6.2,0000.0,0004.02,0001.27,0001.08
2023-12-19 14:50:00,SystemResetWarning,0825.5,5.00,000.00,023.3,022.6,000.0,031.5,024.7,6.2,0000.0,0001.73,0001.25,0001.07
2023-12-19 14:51:00,SystemResetWarning,0825.5,4.99,000.00,023.3,022.6,000.0,031.5,024.7,6.2,0000.0,0001.64,0001.22,0001.07
2023-12-19 14:52:00,SystemResetWarning,0825.5,5.00,000.00,023.3,022.6,000.0,031.5,024.7,6.3,0000.0,0001.64,0001.22,0001.07
2023-12-19 14:53:00,SystemResetWarning,0825.5,5.00,000.00,023.3,022.6,000.0,031.5,024.7,6.3,0000.0,0001.52,0001.19,0001.08
2023-12-19 14:54:00,SystemResetWarning,0825.5,5.00,000.00,023.3,022.6,000.0,031.5,024.7,6.4,0000.0,0001.61,0001.19,0001.07
2023-12-19 14:55:00,SystemResetWarning,0825.5,5.01,000.00,023.3,022.6,000.0,031.5,024.7,6.2,0000.0,0001.66,0001.20,0001.07
2023-12-19 14:56:00,SystemResetWarning,0825.5,5.01,000.00,023.3,022.6,000.0,031.5,024.8,6.2,0000.0,0001.77,0001.21,0001.07
2023-12-19 14:57:00,SystemResetWarning,0825.5,5.00,000.00,023.3,022.6,000.0,031.5,024.7,6.2,0000.0,0002.66,0001.21,0001.06
2023-12-19 14:58:00,SystemResetWarning,0825.5,5.00,000.00,023.3,022.6,000.0,031.6,024.7,6.2,0000.0,0003.50,0001.24,0001.06
2023-12-19 14:59:00,SystemResetWarning,0825.6,5.01,000.00,023.3,022.6,000.0,031.6,024.8,6.1,0000.0,0003.50,0001.24,0001.06
